Miscellaneous Local Product
Issued by NWS North Platte, NE

Home | Current Version | Previous Version | Text Only | Print | Product List | Glossary On
Versions: 1 2 3 4 5 6 7 8 9 10 11 12 13 14 15 16 17 18 19 20 21 22 23 24 25 26 27 28 29 30 31 32 33 34 35 36 37 38 39 40 41 42 43 44 45 46 47 48 49 50
000
AXUS43 KLBF 220010
MISLBF


WESTERN AND NORTH CENTRAL NEBRASKA HOURLY WEATHER ROUNDUP
NATIONAL WEATHER SERVICE NORTH PLATTE NE
700 PM CDT THU AUG 21 2014

***STATIONS NOT REPORTING VARIABLES SUCH AS SKY/WEATHER OR
PRESSURE ARE PROVIDED BY THE NEBRASKA DEPARTMENT OF
ROADS...RAWS...AND APRS NETWORKS...AND ARE NOT UNDER
NATIONAL WEATHER SERVICE QUALITY CONTROL***

...OBSERVATIONS IN AND NEAR THE EASTERN PANHANDLE OF NEBRASKA...

CITY           SKY/WX    TMP DP  RH WIND       PRES   REMARKS
PINE RIDGE     MOSUNNY   84  56  38 E9        29.95S
CHADRON        MOSUNNY   87  53  31 SE21      29.92F
ALLIANCE       MOSUNNY   85  48  27 S5        29.98S
SIDNEY         MOSUNNY   85  47  26 E6        30.03S
WHITECLAY        N/A     85  54  34 SE8         N/A
RUSHVILLE        N/A     86  51  29 SE12        N/A
GORDON           N/A     91  55  29 SE6         N/A
LISCO            N/A     90  46  21 S5          N/A
BIG SPRINGS      N/A     88  58  35 NE3         N/A
$$

...OBSERVATIONS IN NORTH CENTRAL NEBRASKA...

CITY           SKY/WX    TMP DP  RH WIND       PRES   REMARKS
VALENTINE      MOSUNNY   87  56  34 MISG      29.93S
THEDFORD       SUNNY     87  61  41 NE6       29.96S
AINSWORTH      SUNNY     82  64  53 NE5       29.94R
O`NEILL        SUNNY     86  71  60 N5        29.90S HX  91
ORD            SUNNY     88  70  55 N3        29.86F HX  93
BROKEN BOW     SUNNY     87  67  51 NE7       29.91S HX  90
BROWNLEE         N/A     94  58  29 NE3         N/A  HX  93
SPRINGVIEW       N/A     86  62  44 NE5         N/A
ROSE             N/A     91  64  40 N3          N/A  HX  92
NEWPORT          N/A     87  62  42 CALM        N/A
SARGENT          N/A     87  65  47 CALM        N/A
COMSTOCK         N/A     92  74  55 CALM        N/A  HX 101
CHAMBERS         N/A     88  65  45 N3          N/A
EWING            N/A     86  74  67 CALM        N/A  HX  94
$$

...OBSERVATIONS IN SOUTHWEST NEBRASKA AND FAR NORTHEAST COLORADO...

CITY           SKY/WX    TMP DP  RH WIND       PRES   REMARKS
WRAY             N/A     91  46  20 N9        29.98R
IMPERIAL       SUNNY     90  51  26 NW6       29.95S
OGALLALA       MOSUNNY   87  53  30 NE3       29.94S
NORTH PLATTE   SUNNY     85  62  46 NE8       29.92R
MCCOOK         MOSUNNY   93  50  23 NW6       29.89S HX  90
LEXINGTON      MOSUNNY   87  72  60 NE3       29.89S HX  93
PAXTON           N/A     91  58  32 CALM        N/A
SUTHERLAND       N/A     94  58  30 E6          N/A  HX  93
BRADY            N/A     86  66  50 N3          N/A
GOTHENBURG       N/A     89  61  39 NW5         N/A
CALLAWAY         N/A     91  74  56 E6          N/A  HX 100
$$

...SOME WEATHER OBSERVATIONS FROM AROUND THE REGION...

CITY           SKY/WX    TMP DP  RH WIND       PRES   REMARKS
DENVER         PTSUNNY   84  43  23 NE7       30.08S
LARAMIE        PTSUNNY   71  39  31 SW6       30.22R
CHEYENNE       CLOUDY    72  46  39 S8        30.16R
SCOTTSBLUFF    PTSUNNY   89  44  20 CALM      29.99S
RAPID CITY     PTSUNNY   80  60  50 N7        29.95S
PIERRE         SUNNY     86  60  41 N5        29.87S
WINNER         FAIR      87  57  35 N5        29.90S
SIOUX FALLS    PTSUNNY   84  69  60 N9        29.84R
OMAHA          MOSUNNY   91  69  48 S3        29.82F HX  96
GRAND ISLAND   MOSUNNY   87  71  58 NE3       29.86S HX  93
KANSAS CITY    MOSUNNY   91  73  55 S13       29.85S HX  99
WICHITA        SUNNY     94  67  41 S20       29.84F HX  97
HAYS           MOSUNNY   95  64  36 S15       29.81S HX  97
LIBERAL        PTSUNNY   95  57  28 S16       29.90R HX  94
GOODLAND       SUNNY     92  49  22 NE8       29.97S
$$



USA.gov is the U.S. government's official web portal to all federal, state and local government web resources and services.